Needles, CA

4:24 PM PDT on May 25, 2018 (GMT -0700)
Needles

Weather History for KEED - July, 2013

Change the Weather History Date:

Tuesday, July 9, 2013

  Actual Average Record
Temperature  
Mean Temperature 100 °F 96 °F  
Max Temperature 113 °F 109 °F 119 °F (1961)
Min Temperature 88 °F 84 °F 64 °F (1939)
Degree Days  
Heating Degree Days 0    
Cooling Degree Days 34    
Growing Degree Days 50 (Base 50)    
Moisture  
Dew Point 43 °F    
Average Humidity 14    
Maximum Humidity 27    
Minimum Humidity 9    
Precipitation  
Precipitation 0.00 in 0.01 in 0.26 in (1918)
Month to date precipitation 0.04  
Year to date precipitation 2.42  
Sea Level Pressure  
Sea Level Pressure 29.74 in    
Wind  
Wind Speed 8 mph (SSW)    
Max Wind Speed 18 mph    
Max Gust Speed 28 mph    
Visibility 10 miles    
Events      
T = Trace of Precipitation, MM = Missing Value Source: NWS Daily Summary

Daily Weather History Graph

Daily Weather History Graph

Search for Another Location

Airport or City:

Astronomy

Jul. 09, 2013 Rise Set
Actual Time 5:33 AM PDT 7:54 PM PDT
Civil Twilight 5:03 AM PDT 8:23 PM PDT
Nautical Twilight 4:27 AM PDT 8:59 PM PDT
Astronomical Twilight 3:48 AM PDT 9:38 PM PDT
Moon 6:55 AM PDT (7/9) 8:40 PM PDT (7/9)
Length of Visible Light 15h 19m
Length of Day
14h 21m
New Moon, 2% of the Moon is Illuminated
Jul 9
New Moon
Jul 15
First Quarter
Jul 22
Full
Jul 29
Last Quarter
Aug 6
New

Hourly Weather History & Observations

Time (PDT) Temp. Heat Index Dew Point Humidity Pressure Visibility Wind Dir Wind Speed Gust Speed Precip Events Conditions
12:56 AM 99.0 °F - 30.0 °F 9% 29.69 in 10.0 mi West 9.2 mph - N/A   Clear
1:56 AM 95.0 °F - 34.0 °F 12% 29.70 in 10.0 mi SSE 5.8 mph - N/A   Clear
2:56 AM 93.0 °F - 34.0 °F 12% 29.70 in 10.0 mi SSW 4.6 mph - N/A   Clear
3:56 AM 91.0 °F - 30.0 °F 11% 29.71 in 10.0 mi SW 5.8 mph - N/A   Clear
4:56 AM 91.0 °F - 28.9 °F 11% 29.73 in 10.0 mi SSW 4.6 mph - N/A   Clear
5:56 AM 88.0 °F - 32.0 °F 14% 29.76 in 10.0 mi South 4.6 mph - N/A   Clear
6:56 AM 91.9 °F - 30.9 °F 11% 29.78 in 10.0 mi NW 4.6 mph - N/A   Clear
7:56 AM 97.0 °F - 33.1 °F 11% 29.81 in 10.0 mi Calm Calm - N/A   Clear
8:23 AM 96.8 °F - 51.8 °F 22% 29.95 in 10.0 mi SSW 18.4 mph 27.6 mph N/A   Clear
8:56 AM 97.0 °F 96.1 °F 57.9 °F 27% 29.83 in 10.0 mi SSW 17.3 mph 26.5 mph N/A   Clear
9:56 AM 100.0 °F 98.8 °F 55.9 °F 23% 29.85 in 10.0 mi SSW 16.1 mph 24.2 mph N/A   Clear
10:56 AM 102.0 °F 100.1 °F 54.0 °F 20% 29.85 in 10.0 mi South 16.1 mph 19.6 mph N/A   Clear
11:56 AM 105.1 °F - 52.0 °F 17% 29.83 in 10.0 mi South 9.2 mph 19.6 mph N/A   Clear
2:56 PM 109.9 °F - 50.0 °F 14% 29.76 in 10.0 mi SSE 6.9 mph - N/A   Unknown
3:56 PM 109.9 °F - 51.1 °F 14% 29.73 in 10.0 mi South 10.4 mph - N/A   Clear
4:56 PM 111.0 °F - 48.0 °F 12% 29.70 in 10.0 mi SW 10.4 mph 17.3 mph N/A   Partly Cloudy
5:56 PM 109.9 °F - 46.9 °F 12% 29.68 in 10.0 mi SSW 11.5 mph - N/A   Scattered Clouds
6:56 PM 111.0 °F - 41.0 °F 9% 29.67 in 10.0 mi WSW 10.4 mph - N/A   Clear
7:56 PM 108.0 °F - 41.0 °F 10% 29.67 in 10.0 mi SW 10.4 mph - N/A   Partly Cloudy
8:56 PM 105.1 °F - 42.1 °F 12% 29.67 in 10.0 mi WSW 10.4 mph - N/A   Clear
9:56 PM 102.0 °F - 43.0 °F 13% 29.68 in 10.0 mi West 5.8 mph - N/A   Clear
10:56 PM 100.0 °F - 48.0 °F 17% 29.68 in 10.0 mi Calm Calm - N/A   Clear
11:56 PM 99.0 °F - 46.9 °F 17% 29.69 in 10.0 mi Calm Calm - N/A   Clear